Flag for India Weather past 2 weeks in Bhilwara, Rajasthan, India

Now
63 °F

Passing clouds.


Feels Like: 63 °F
Forecast: 48 / 74 °F
Wind: No wind

Location: Jaipur / Sanganer

Current Time: Dec 19, 2014 at 7:57:01 PM

Latest Report: Dec 19, 2014 at 7:00 PM


Visibility: 1 mi

Pressure: 30.15 "Hg

Humidity: 49%

Dew point: 43 °F

Location of BhilwaraLocation

Historic Weather in Bhilwara — Graph

°F

Bhilwara temperature yesterday

Maximum temperature yesterday: 70 °F (at 1:00 PM)
Minimum temperature yesterday: 45 °F (at 6:00 AM)
Average temperature yesterday: 57 °F

Past Weeks' High & Low Weather Summary

 TemperatureHumidityPressure
High82 °F (Dec 5, 11:00 AM)100% (Dec 14, 8:00 AM)30.24 "Hg (Dec 14, 8:00 AM)
Low45 °F (Dec 18, 6:00 AM)12% (Dec 11, 3:00 PM)29.71 "Hg (Dec 12, 3:00 PM)
Average63 °F53%30.08 "Hg
* Reported Dec 4 6:00 PM — Dec 19 6:00 PM, Bhilwara, Weather by CustomWeather, © 2014

Note: Actual official high and low records may vary slightly from our data, if they occured in-between our weather recording intervals... More about our weather records

Advertising

Bhilwara weather history for previous 24 hours

 ConditionsComfort  
Time TempWeatherWind HumidityBarometerVisibility
6:00 PM
Dec 19
64 °FScattered clouds.2 mph43%30.12 "Hg1 mi
5:30 PM68 °FScattered clouds.3 mph35%30.15 "Hg1 mi
5:00 PM70 °FScattered clouds.5 mph31%30.12 "Hg1 mi
4:00 PM72 °FScattered clouds.3 mph29%30.15 "Hg1 mi
3:00 PM72 °FScattered clouds.3 mph27%30.15 "Hg1 mi
2:30 PM73 °FScattered clouds.3 mph27%30.15 "Hg1 mi
2:00 PM73 °FScattered clouds.2 mph27%30.18 "Hg1 mi
1:00 PM70 °FScattered clouds.3 mph35%30.18 "Hg1 mi
12:00 PM68 °FScattered clouds.6 mph35%30.21 "Hg1 mi
11:00 AM64 °FScattered clouds.5 mph40%30.24 "Hg1 mi
10:00 AM64 °FScattered clouds.6 mph46%30.24 "Hg1 mi
8:00 AM52 °FFog.No wind67%30.21 "Hg1 mi
6:00 AM48 °FHaze.1 mph76%30.18 "Hg1 mi
5:00 AM46 °FHaze.No wind76%30.15 "Hg1 mi
4:00 AM48 °FHaze.No wind82%30.15 "Hg1 mi
3:00 AM46 °FHaze.No wind82%30.15 "Hg1 mi
2:00 AM50 °FHaze.No wind82%30.15 "Hg1 mi
1:00 AM52 °FPassing clouds.1 mph77%30.18 "Hg1 mi
12:00 AM52 °FPassing clouds.No wind77%30.18 "Hg1 mi
11:00 PM
Dec 18
52 °FPassing clouds.No wind72%30.21 "Hg1 mi
10:00 PM55 °FPassing clouds.No wind63%30.18 "Hg1 mi
9:00 PM55 °FPassing clouds.No wind59%30.18 "Hg1 mi
8:00 PM57 °FPassing clouds.No wind55%30.15 "Hg1 mi
7:00 PM63 °FPassing clouds.No wind42%30.15 "Hg1 mi
Weather by CustomWeather, © 2014

See weather overviewHow to use our weather pages